Theta_e
294 294 293 293 293 292 291 291 290 290 289 289 289 289 289 289 289 290 290 291 291 291 291 290 290 291 291 291 291 291 291 292 293 294 294 294 294 294 295 295 296 296 296 296 295 296 296 298 299 301 302 302 303 303 302 301 300 299 297 296 296 295 294 293 292 291 291 290 289 289 289 288 288 288 287 287 287 287 286 286 286 285 285 285 285
294 293 293 292 292 291 291 290 290 289 289 289 289 289 289 289 289 289 290 290 291 291 291 290 290 290 290 290 290 290 291 291 292 292 293 294 294 294 294 294 295 295 295 295 295 295 295 295 297 298 300 300 301 302 302 301 300 299 297 296 295 294 293 293 292 291 290 289 289 288 288 288 288 288 287 287 287 287 286 286 286 286 285 285 285
293 292 292 292 291 291 290 289 289 288 288 288 288 289 289 289 289 289 289 290 290 291 290 290 290 290 290 290 290 290 290 290 290 291 291 292 293 294 294 294 294 294 294 294 295 295 295 295 295 296 297 298 299 300 300 300 300 299 298 296 295 294 293 292 292 291 290 289 288 288 288 287 287 287 287 287 287 287 286 286 286 286 285 285 285
291 291 291 291 290 290 289 289 288 288 288 288 288 289 289 289 289 289 289 289 290 290 290 290 290 289 289 289 289 290 289 289 290 290 290 291 292 293 294 295 294 293 293 293 293 294 294 294 294 295 295 296 297 298 298 299 300 299 298 297 295 294 293 292 292 291 290 290 289 289 288 287 288 287 286 286 287 287 286 286 286 286 286 285 285
291 290 290 289 289 289 289 288 288 288 287 288 288 288 288 288 288 289 289 289 289 290 290 290 289 289 289 289 289 289 289 289 289 289 290 290 291 292 293 294 294 294 293 293 293 293 293 293 294 294 294 294 295 296 297 297 298 299 298 297 296 294 293 292 292 291 291 291 290 290 289 288 289 288 286 286 286 286 286 286 286 286 286 285 285
290 289 288 288 288 288 288 288 288 288 287 288 288 288 288 288 288 288 289 289 289 289 289 289 289 289 289 289 289 289 289 289 289 289 289 290 290 290 291 291 292 293 293 293 293 293 293 293 293 294 294 293 293 294 294 295 296 297 298 297 296 295 294 293 292 291 290 291 291 291 292 291 290 287 286 287 286 286 286 286 286 286 286 285 285
289 288 288 288 287 287 287 287 287 287 287 287 288 288 288 288 288 288 289 289 289 289 289 289 289 289 289 289 289 289 289 289 289 289 289 289 290 290 290 290 290 291 291 292 293 293 293 293 292 293 293 293 293 293 293 294 294 295 296 296 296 295 294 293 292 291 290 290 290 291 292 292 291 289 288 288 286 285 285 285 285 285 285 285 285
289 288 287 287 287 287 287 287 287 287 287 288 288 288 288 288 288 288 288 289 289 289 289 288 288 288 288 288 288 288 289 288 288 288 289 289 289 289 290 290 290 291 291 291 291 292 292 292 292 292 292 293 293 292 292 293 293 294 294 295 295 294 294 293 293 292 290 290 290 290 290 291 292 291 290 289 287 285 284 284 284 284 284 284 284
289 287 287 287 286 286 286 287 287 287 287 287 288 288 288 288 288 288 288 288 288 288 288 288 288 288 288 288 288 288 288 288 288 288 288 288 289 289 289 290 290 290 291 291 291 291 291 291 292 292 292 292 292 292 292 292 292 292 293 293 294 294 294 294 293 292 291 291 290 289 290 290 291 290 289 289 288 286 284 283 283 283 283 283 284
289 287 287 286 286 286 286 287 287 287 287 287 287 287 287 288 287 288 288 288 288 288 287 287 288 288 288 288 288 288 288 288 288 288 288 288 288 289 289 289 289 290 290 290 290 290 290 290 291 291 292 292 292 292 292 292 292 292 292 292 292 293 293 293 293 293 291 291 290 290 289 289 289 289 288 287 287 287 285 283 282 282 282 282 282
289 287 287 286 286 286 286 286 287 287 287 287 287 287 287 287 287 288 288 287 287 287 287 287 287 287 288 288 288 288 288 288 288 288 288 288 288 288 288 289 289 289 289 290 290 290 290 290 290 290 290 291 291 291 291 292 292 292 292 292 292 292 292 292 292 293 292 291 290 290 289 289 289 289 288 287 287 287 286 283 282 282 282 281 282
288 287 287 286 286 286 286 286 286 286 286 286 287 287 287 286 287 287 287 287 287 287 286 287 287 287 287 287 287 287 287 288 288 288 288 288 288 288 288 288 288 289 289 289 289 290 290 290 289 289 289 290 290 290 291 291 291 292 292 292 292 292 292 292 291 292 292 291 290 290 290 289 289 289 289 288 287 287 286 284 282 282 282 282 282
287 287 286 286 286 286 286 286 286 286 286 286 287 287 286 286 287 287 287 286 287 286 286 286 286 287 287 287 287 287 287 287 287 287 287 288 288 288 288 288 288 288 289 289 289 289 289 289 289 289 289 289 289 289 290 290 290 291 291 292 292 292 292 292 291 291 292 291 290 290 290 290 290 289 289 288 288 288 287 285 283 282 283 282 282
286 286 286 286 285 285 285 285 286 286 286 286 287 286 286 286 286 287 287 286 286 286 286 286 286 286 286 286 286 287 287 287 287 287 287 287 288 288 288 288 288 288 288 288 288 289 289 289 289 289 289 289 288 289 289 290 290 289 290 290 291 291 291 291 291 291 291 291 291 290 289 289 290 289 289 288 288 288 287 286 284 283 283 282 281
286 286 285 285 285 285 285 285 286 286 286 286 286 286 286 286 286 286 286 285 285 285 285 285 285 286 286 286 286 286 286 286 287 287 287 287 287 288 288 287 288 288 288 288 288 288 288 288 289 289 289 289 289 288 288 289 290 290 289 289 289 290 291 291 291 291 291 291 291 290 290 289 289 289 289 289 288 288 288 287 285 284 283 282 281
285 285 285 285 285 285 285 285 285 285 286 286 286 286 286 285 285 285 285 285 285 285 284 284 284 285 285 285 286 285 286 286 286 287 287 287 287 287 287 287 287 287 287 288 288 288 288 288 288 289 289 289 289 289 288 288 289 290 290 289 289 289 289 290 290 290 290 290 291 291 290 289 289 289 289 289 289 288 288 288 286 285 285 284 282
285 285 285 285 285 285 285 285 285 285 285 286 286 285 285 285 285 285 285 285 284 284 284 283 283 284 284 285 285 285 285 286 286 286 287 287 287 287 287 287 287 287 287 287 287 287 288 288 288 288 289 289 289 289 289 288 288 289 289 290 290 289 289 289 289 289 290 290 290 290 290 290 289 289 289 289 289 288 288 288 287 287 287 286 284
284 284 284 284 284 284 284 285 285 285 285 285 285 285 285 284 284 284 284 284 284 283 282 281 282 282 283 283 283 284 284 285 285 285 285 286 286 286 286 287 287 287 287 287 287 287 287 287 288 288 288 288 288 288 288 288 288 288 288 289 289 290 289 289 289 289 289 289 289 289 290 290 289 288 288 288 288 288 288 288 288 288 288 288 287
284 284 284 284 284 284 284 285 285 285 285 285 284 284 284 284 284 284 284 283 283 281 280 280 280 281 282 282 282 282 283 283 283 283 283 284 285 286 286 287 287 287 287 287 287 287 287 287 287 287 288 288 288 288 288 288 288 287 287 287 288 289 288 289 289 289 289 289 288 288 289 289 289 289 288 288 288 288 288 287 288 288 287 288 288
284 284 284 284 284 284 284 284 285 285 284 284 284 283 284 284 284 283 283 282 281 280 279 280 280 280 281 281 281 281 281 281 282 282 283 283 284 285 286 286 286 286 287 287 287 287 287 287 287 287 287 288 288 288 288 288 288 287 287 287 287 287 288 288 288 288 289 288 288 288 288 288 288 289 288 288 287 287 287 287 287 287 287 288 287
283 283 284 284 284 284 284 284 284 284 284 283 283 283 283 283 283 282 282 281 280 279 279 279 279 279 280 280 279 279 279 279 280 281 282 283 283 284 285 286 286 286 287 287 287 287 287 287 287 287 287 287 287 288 288 288 288 288 287 287 287 287 287 287 288 288 288 288 288 288 288 288 288 288 288 288 287 286 286 286 286 286 286 287 287
283 283 283 283 283 283 284 284 284 284 283 283 283 283 283 283 282 282 281 281 280 279 279 278 278 278 279 279 278 278 277 278 278 279 280 281 282 283 284 285 286 286 286 286 287 287 287 287 287 287 287 287 287 287 288 287 288 288 287 287 287 287 287 287 287 287 287 287 287 287 287 287 287 287 287 287 286 286 285 285 285 286 286 286 286
283 283 283 283 283 283 283 284 284 283 283 283 283 283 283 282 282 282 281 280 279 279 278 278 278 278 278 278 277 277 277 277 278 279 280 281 282 283 284 284 285 286 286 286 286 286 287 287 287 287 287 287 287 287 287 287 287 287 287 287 287 286 286 286 286 287 287 287 287 287 287 286 286 286 286 286 286 285 285 285 285 285 285 285 285
282 282 283 283 283 283 283 283 283 283 282 282 282 283 282 282 282 281 281 280 279 278 278 278 278 278 278 277 276 276 276 277 278 279 280 281 281 283 284 285 285 285 285 285 286 286 286 286 287 287 287 287 287 287 287 287 287 287 287 287 287 287 286 286 286 286 286 287 287 286 286 286 286 286 286 285 285 285 284 284 284 284 284 284 284
282 282 282 282 283 283 283 283 283 282 282 282 282 282 282 282 281 281 280 279 278 278 277 277 277 277 276 276 276 276 276 277 278 279 280 281 282 283 284 284 284 284 284 284 284 285 284 285 286 287 287 287 287 287 287 287 287 287 287 287 287 287 286 286 286 286 286 286 286 286 286 286 285 285 285 285 284 284 284 283 283 283 283 284 284
281 282 282 282 282 282 282 282 282 282 282 282 282 282 281 281 281 280 279 278 277 277 277 277 276 275 275 275 275 275 275 276 277 278 279 280 281 281 282 282 283 283 283 283 283 283 283 284 285 286 287 287 287 287 287 287 287 287 287 287 287 287 286 286 286 286 286 286 286 286 286 286 285 285 285 285 284 284 283 283 283 283 283 283 282
281 282 282 282 281 281 281 281 281 281 281 281 281 281 280 280 279 278 277 277 276 276 276 275 274 274 274 274 274 275 275 276 277 278 279 279 279 279 280 280 281 281 282 282 282 282 283 283 284 286 287 287 287 287 287 287 287 287 287 287 287 287 287 286 286 286 286 286 285 285 286 285 285 285 284 284 284 284 283 283 282 282 282 282 282
281 281 281 280 280 280 280 280 280 281 280 280 280 279 279 278 277 277 276 276 276 275 274 273 273 273 273 274 274 274 275 276 277 278 278 278 278 278 279 279 280 281 281 281 282 282 283 284 285 286 287 287 287 287 287 287 287 287 287 287 287 287 287 287 286 286 286 285 285 285 285 285 285 285 284 284 284 284 283 282 282 282 282 281 281
280 280 279 279 279 279 279 279 279 280 279 279 278 277 277 276 276 276 275 275 274 273 272 272 272 272 273 273 274 275 275 276 276 277 277 277 278 278 278 279 279 280 280 281 282 283 284 285 285 286 286 287 287 287 287 287 287 287 287 287 287 287 287 287 286 286 286 285 285 285 285 284 284 284 284 284 284 284 283 282 282 281 281 281 281
279 278 278 278 278 278 278 278 279 278 278 277 276 275 275 275 275 275 274 274 273 272 271 271 271 272 273 274 274 274 274 275 275 276 276 277 277 278 278 278 278 279 280 280 281 283 284 284 284 284 285 286 287 287 287 287 287 287 287 287 287 287 287 287 286 286 286 285 285 285 284 284 284 284 284 284 284 284 283 282 282 281 281 281 280
278 277 277 277 277 277 277 277 277 277 275 274 274 274 274 274 273 273 273 272 272 271 270 271 271 273 273 273 273 273 273 274 274 275 276 277 277 277 277 276 277 278 279 280 281 282 283 283 283 283 284 285 286 286 286 286 286 286 286 287 287 287 287 287 286 286 286 285 285 285 284 284 284 284 284 284 284 283 283 282 282 281 281 281 280
277 277 277 277 277 276 277 276 275 275 274 273 273 273 273 272 271 271 271 271 271 270 270 270 271 272 272 271 271 272 273 274 274 275 276 276 276 276 275 275 276 277 278 279 280 281 282 282 282 283 284 285 286 286 286 287 286 286 287 287 287 287 287 286 286 286 286 285 285 284 284 284 284 284 283 283 283 283 283 283 282 281 281 281 280
277 277 277 276 276 276 276 275 274 274 273 273 272 272 271 270 270 270 270 270 270 269 269 269 269 270 270 270 271 272 273 273 273 274 274 275 274 274 274 275 275 277 278 279 279 280 281 281 282 284 285 286 286 286 286 287 287 287 287 287 287 287 287 287 286 286 286 285 285 284 284 284 283 283 283 283 283 283 283 282 282 281 281 280 280
277 277 276 276 276 276 275 274 273 272 272 272 271 270 269 269 269 269 269 269 268 268 268 268 268 269 270 271 271 272 272 272 272 272 273 273 273 273 274 274 275 277 278 279 280 280 281 282 283 284 285 286 286 286 286 287 287 287 287 287 287 287 287 287 287 286 286 285 285 284 284 284 283 283 283 283 282 282 282 282 282 281 281 280 280
276 276 276 276 276 275 274 273 272 271 271 271 270 269 268 269 269 269 268 268 268 268 268 268 268 269 270 270 271 271 271 271 271 271 272 272 273 273 273 274 275 277 278 280 281 282 283 284 285 285 286 286 286 286 286 287 287 287 287 287 287 287 287 287 287 286 286 286 285 285 284 284 283 283 282 282 282 282 282 282 281 281 281 280 280
276 276 275 275 275 274 273 272 271 270 269 269 269 268 268 269 268 268 267 267 267 267 267 268 268 269 269 270 270 270 270 270 270 270 271 272 272 272 273 274 275 276 278 281 282 283 284 285 286 286 286 286 287 287 287 287 287 287 287 287 287 287 287 287 287 287 286 286 286 285 285 284 283 282 282 282 282 281 281 281 281 281 280 280 280
276 276 275 274 273 272 271 271 270 269 268 269 268 268 268 268 268 267 267 267 267 267 267 267 268 268 268 269 269 269 269 269 269 270 270 271 271 272 272 273 275 276 278 281 282 283 285 286 286 286 286 286 287 286 286 286 287 287 287 287 287 287 287 287 287 286 286 286 285 285 285 284 283 282 282 282 282 281 281 280 281 280 280 280 280
276 275 274 273 272 271 270 270 269 268 268 268 268 268 267 267 267 267 267 267 267 267 267 267 267 267 268 269 269 269 269 269 269 269 270 270 271 271 272 273 274 276 278 280 283 284 285 286 286 286 286 286 287 286 286 286 286 287 287 287 287 287 286 286 286 286 286 285 285 285 284 283 282 282 282 282 282 281 280 280 280 280 279 279 279
275 274 273 272 271 270 270 269 268 268 267 267 267 267 267 267 266 266 266 266 267 267 267 267 267 267 268 268 268 268 268 268 268 269 269 270 270 271 272 273 274 276 278 280 283 285 285 286 286 286 287 286 287 287 286 286 287 287 287 287 287 286 286 286 286 285 285 285 284 284 284 282 282 281 281 281 282 282 280 280 280 279 279 279 279
275 274 272 271 270 269 269 268 268 267 267 267 266 266 266 266 266 266 266 266 266 266 266 266 267 267 267 267 267 267 267 268 268 268 269 269 270 271 272 273 275 277 279 282 284 285 285 286 286 286 286 286 286 287 286 286 286 286 287 287 286 286 286 285 285 284 284 283 283 282 282 282 281 281 281 281 282 282 280 279 279 279 279 278 278
275 273 272 271 270 269 268 268 267 267 267 266 266 266 266 266 266 266 266 266 266 266 266 266 266 267 267 267 266 267 267 267 267 268 268 269 269 271 272 274 276 278 280 283 285 285 285 286 286 286 286 286 286 285 285 285 285 285 285 286 285 285 285 284 284 283 282 282 281 281 281 281 281 281 281 281 282 282 280 279 279 279 278 278 278
274 273 271 270 269 269 268 267 267 267 266 266 266 266 266 266 266 266 266 266 266 266 266 266 266 266 266 266 266 266 266 267 267 267 268 269 270 272 274 276 278 280 282 284 285 285 286 286 286 286 286 285 284 283 282 282 283 283 283 284 284 283 284 283 283 282 281 280 280 280 280 281 281 281 281 281 282 282 280 279 279 279 278 278 278
274 273 271 270 269 268 268 267 267 266 266 266 265 265 266 266 266 266 266 266 266 266 266 266 266 266 266 266 266 266 266 267 267 267 268 269 270 273 275 277 279 282 284 285 285 286 286 286 285 285 284 283 282 281 281 281 281 282 282 282 282 283 283 283 282 281 280 280 280 280 280 280 280 281 281 281 281 281 280 279 279 279 279 278 277
273 272 271 269 268 268 267 267 266 266 266 265 265 265 265 265 266 266 266 266 266 266 266 266 266 266 266 266 266 266 266 266 267 268 269 270 271 273 274 276 278 281 283 285 285 285 285 285 284 283 283 282 282 281 281 281 280 280 280 281 282 282 282 282 281 281 280 280 279 279 279 280 280 281 280 281 281 281 280 279 279 279 278 278 277
273 272 271 269 268 267 267 266 266 266 265 265 265 265 266 266 266 266 265 265 266 265 266 266 265 266 266 266 266 266 266 267 267 268 269 270 271 273 274 275 277 279 282 284 284 284 284 283 283 282 282 282 281 281 280 280 279 279 280 281 281 282 282 282 281 280 280 279 279 279 279 280 280 280 280 281 281 280 279 279 279 279 278 277 276
272 271 270 269 268 267 267 266 266 265 265 265 265 265 265 265 265 265 265 265 265 265 265 265 265 266 266 266 266 266 266 267 267 268 269 270 271 272 273 274 276 278 280 282 283 283 282 282 282 282 282 281 281 280 280 279 279 279 280 280 281 282 283 281 280 280 279 279 279 279 279 280 280 280 280 281 280 280 279 279 279 278 277 276 275
272 271 270 269 267 267 266 266 265 265 265 265 265 265 265 265 265 265 265 265 265 265 265 265 265 266 266 266 266 266 267 267 267 268 268 269 270 271 272 273 275 276 278 281 282 282 282 282 281 281 280 280 281 280 279 279 279 279 280 281 282 282 282 280 279 279 279 279 279 279 280 280 280 280 280 280 280 279 279 278 277 276 276 275 275
271 270 270 268 267 267 266 265 265 265 265 265 265 265 265 265 265 265 265 265 265 265 265 265 265 266 266 266 266 266 267 267 267 267 268 268 269 270 271 272 274 275 277 279 281 281 281 281 280 279 279 280 280 280 279 279 279 280 281 282 282 281 280 279 279 279 279 279 279 280 280 280 280 279 278 278 277 277 276 275 275 275 275 274 274
270 270 269 268 267 266 266 265 265 265 265 265 265 265 265 265 265 265 265 265 265 265 265 265 265 266 266 266 266 266 267 267 267 267 268 268 269 270 271 272 273 275 277 279 280 281 280 279 279 278 278 279 280 280 279 279 279 280 281 281 281 280 279 279 279 279 279 279 279 278 278 278 277 276 275 274 274 273 273 273 273 273 273 273 273
270 269 269 268 267 266 265 265 265 264 264 265 265 264 265 264 264 264 264 265 265 265 265 265 265 265 266 266 266 266 267 267 267 267 268 268 269 270 271 272 274 275 277 279 280 280 279 279 279 278 278 279 280 280 279 279 279 280 281 281 280 279 279 279 279 279 278 278 277 276 275 275 274 274 273 272 272 271 271 271 271 272 272 272 272
269 268 268 268 266 265 265 264 264 264 264 264 264 264 264 264 264 264 264 265 265 265 265 265 265 265 266 266 266 267 267 267 267 267 268 268 269 270 271 272 274 275 277 278 279 279 279 279 280 280 280 280 280 279 279 279 280 281 281 280 280 279 279 279 278 278 277 276 275 274 274 274 273 273 272 271 271 271 270 270 270 270 270 271 270
Wind_Speed
5 6 10 15 16 17 22 21 19 22 25 25 27 26 23 22 23 24 22 20 19 18 15 13 12 14 15 15 15 17 19 21 20 19 20 21 22 21 17 14 12 13 14 16 19 22 24 24 25 25 25 25 26 31 36 38 37 38 37 37 37 36 34 35 36 34 28 22 20 22 25 26 27 27 28 29 29 30 29 28 28 26 26 26 25
6 8 13 18 19 22 24 22 22 25 28 29 28 26 24 23 24 24 22 21 20 20 17 14 14 16 17 15 15 16 18 20 21 22 22 24 25 26 24 19 17 16 15 16 17 18 20 23 25 26 26 26 24 24 28 34 36 36 36 34 36 38 35 35 37 33 25 20 15 12 14 18 23 26 28 29 30 29 29 28 29 29 28 27 26
7 10 14 17 19 22 22 21 22 26 29 31 28 25 23 22 24 24 23 22 21 21 21 19 18 19 19 18 16 15 15 17 21 24 25 26 26 28 29 25 20 19 19 19 19 19 20 21 23 26 29 29 28 26 25 27 32 35 36 34 32 33 33 34 40 38 28 23 15 8 8 8 11 19 26 30 30 29 29 29 29 30 29 28 27
9 10 13 18 21 22 22 21 22 25 28 28 27 25 22 22 24 25 25 24 23 23 23 21 21 22 23 23 20 16 15 16 18 21 24 26 26 25 26 25 22 20 19 18 19 20 21 22 22 23 26 28 28 29 27 25 26 31 34 35 32 29 28 30 39 43 35 27 15 3 4 6 5 11 17 24 29 29 30 31 31 30 30 29 29
10 10 12 16 19 21 23 22 23 25 26 27 26 25 23 23 23 26 28 26 25 24 22 21 22 23 25 25 23 19 17 15 14 17 19 23 24 23 21 21 21 20 19 19 19 19 20 22 23 24 25 25 26 27 29 26 24 25 28 32 33 30 28 27 33 40 41 38 26 10 7 6 6 8 10 15 26 31 31 31 32 32 31 30 31
7 9 12 16 20 22 23 24 26 26 24 26 28 26 24 24 24 26 27 25 24 24 23 23 22 23 24 23 22 20 18 16 16 17 17 20 23 24 24 24 23 21 21 21 20 20 19 19 21 24 26 28 26 25 27 28 26 25 25 27 32 33 29 25 27 35 40 41 37 27 20 11 6 12 9 5 18 27 29 31 32 32 32 31 31
7 9 13 17 20 23 24 27 29 28 25 26 27 26 26 26 26 24 23 23 25 27 26 24 24 24 24 24 23 21 20 20 21 20 19 19 21 24 26 28 29 26 24 22 20 19 20 19 20 21 24 28 30 27 27 28 27 27 26 25 27 30 29 24 25 31 32 35 38 36 27 15 13 18 10 4 7 14 21 26 29 29 29 31 32
8 10 12 16 20 24 27 30 31 30 30 28 27 27 27 27 26 24 23 25 25 25 25 25 25 24 23 24 24 23 23 23 24 24 21 20 22 24 25 26 27 27 26 24 22 20 19 20 20 20 21 23 27 30 31 30 26 25 27 27 26 28 29 27 26 27 27 30 36 35 28 20 19 24 22 15 7 5 11 16 23 27 28 30 31
9 11 13 17 22 26 29 31 32 32 31 30 29 29 28 26 25 24 23 24 25 24 25 26 26 25 24 24 24 24 24 25 25 25 24 23 22 23 23 24 24 25 26 26 25 23 20 19 19 20 21 21 22 26 30 32 29 25 24 26 26 27 31 32 29 28 29 30 30 29 29 24 19 20 24 22 11 7 8 8 13 19 22 29 32
9 10 14 19 25 28 29 29 31 32 31 30 30 29 28 27 28 27 24 23 26 25 25 27 27 27 26 25 26 26 26 26 26 26 25 25 24 23 22 23 24 25 26 25 25 25 24 23 20 19 20 20 20 23 25 28 30 30 27 26 25 25 28 33 33 30 30 32 30 28 26 22 15 12 16 18 12 8 8 8 12 15 14 22 31
10 10 14 22 29 30 28 28 30 32 32 30 29 27 28 30 31 29 25 26 28 27 27 27 27 27 26 26 26 27 28 27 26 25 25 25 25 24 23 22 23 24 24 24 24 25 25 26 25 24 22 20 19 20 22 25 26 29 30 29 29 27 25 27 31 30 27 29 32 31 29 27 21 14 14 16 9 5 6 7 11 17 14 16 27
12 11 14 20 25 27 27 28 30 31 31 31 27 25 27 30 30 27 26 29 30 28 27 27 27 27 27 27 27 27 28 27 27 27 26 24 25 25 24 23 22 22 23 24 25 26 26 26 28 29 29 26 23 20 19 22 24 26 28 30 31 32 29 25 27 30 28 26 30 33 32 31 30 26 22 21 15 9 10 6 8 15 11 11 23
14 14 16 17 18 21 23 26 28 28 30 29 25 25 27 28 27 26 27 29 27 26 28 29 29 28 27 27 28 27 27 27 28 28 27 26 25 24 23 22 22 22 23 24 24 24 24 26 27 28 27 27 26 24 20 19 20 23 26 29 31 33 33 29 28 30 29 26 25 30 33 32 32 31 26 24 23 16 11 7 10 16 10 7 18
17 17 17 16 17 20 21 24 26 27 28 25 22 25 26 26 27 26 27 27 25 25 29 31 31 28 26 26 27 28 28 28 29 29 28 27 26 25 25 25 24 23 24 25 24 23 24 24 26 27 26 25 25 25 24 22 20 19 21 25 29 32 33 31 29 30 31 29 24 25 30 32 33 32 27 26 26 21 15 9 9 11 8 6 13
18 18 16 17 22 24 22 23 25 24 24 22 22 26 26 26 27 26 26 27 25 27 30 31 31 30 27 26 27 28 28 29 29 29 28 27 28 30 30 28 26 25 25 26 25 24 24 24 24 25 25 25 24 23 23 24 24 22 20 20 23 26 30 31 30 29 30 31 29 26 26 30 33 32 29 29 28 27 24 18 14 9 5 4 6
17 17 15 18 25 25 21 23 22 21 22 23 25 27 26 26 26 26 27 27 26 28 30 30 31 30 28 27 28 29 30 30 29 30 29 29 30 30 30 28 26 26 26 26 25 24 24 25 25 25 25 24 24 23 22 22 24 25 25 23 22 21 23 26 29 29 30 31 32 29 25 25 30 32 31 30 29 30 29 26 23 15 7 5 4
17 16 15 19 23 24 22 21 19 20 23 25 27 28 25 25 26 25 25 24 26 29 30 31 32 32 31 30 30 31 31 29 29 30 29 29 29 30 30 29 28 27 27 27 26 25 25 26 26 25 24 23 23 23 22 21 21 23 25 26 27 26 24 23 25 26 28 29 30 31 29 25 24 27 31 31 30 30 30 29 28 25 17 9 5
17 17 18 20 23 24 23 20 18 21 24 25 26 27 25 26 27 24 22 22 25 27 30 34 35 34 33 33 32 33 32 30 30 31 30 30 30 30 29 29 28 27 27 27 26 25 25 26 26 26 25 25 25 24 23 21 19 20 22 24 26 28 28 27 26 25 26 26 27 28 30 29 24 23 26 29 30 29 30 30 30 30 26 16 9
17 17 16 17 21 26 25 20 20 24 25 24 25 27 27 27 25 22 20 21 22 27 33 37 36 33 32 32 32 33 33 33 33 33 32 31 31 30 28 29 29 28 28 27 26 26 25 25 26 26 26 26 26 25 24 23 20 18 20 21 23 25 26 27 28 28 28 27 25 26 28 30 29 25 24 25 27 28 29 30 30 30 29 26 19
17 17 16 16 22 27 25 22 24 25 24 25 26 27 27 24 22 20 20 19 22 29 35 36 35 34 33 33 33 34 36 36 35 34 32 31 31 31 30 30 29 27 25 23 23 24 24 25 25 26 26 25 24 23 23 23 22 21 19 19 19 21 23 25 27 27 28 27 27 27 28 29 29 28 27 26 26 27 28 28 29 30 29 29 27
19 17 16 17 23 28 26 24 26 26 25 27 28 27 24 21 20 19 17 19 24 30 32 34 36 36 36 35 34 38 42 41 38 36 34 33 33 31 30 30 29 25 23 22 21 22 22 23 24 26 27 26 25 24 23 23 23 23 22 20 18 18 20 23 24 24 26 26 27 28 29 30 29 27 28 28 28 28 29 28 28 29 29 30 29
19 18 17 17 22 28 27 26 27 25 25 28 29 28 24 20 19 18 17 20 25 27 29 32 35 37 37 36 37 41 44 43 41 39 37 35 34 32 31 31 29 25 23 23 22 22 23 24 24 25 26 26 25 24 23 23 23 23 22 20 18 18 20 21 22 23 24 25 26 27 28 29 28 27 28 28 28 29 29 29 30 29 29 31 31
20 19 17 18 25 29 28 28 27 25 26 28 28 27 23 20 20 19 19 23 26 27 29 32 34 36 35 35 39 43 42 42 40 37 35 35 33 32 32 31 28 24 22 23 22 23 24 25 25 25 25 26 27 26 25 23 23 22 22 22 20 20 21 21 22 22 23 24 24 25 27 27 26 26 27 28 28 29 29 29 31 31 31 32 32
20 19 18 21 27 28 27 26 26 27 28 29 29 27 23 21 22 22 23 26 28 29 30 33 34 34 33 36 41 42 38 37 36 33 33 33 32 31 30 28 26 23 22 23 23 23 23 25 26 26 27 27 27 27 27 27 26 24 24 24 24 24 23 23 23 23 23 23 24 25 27 27 26 25 27 28 28 29 30 30 31 31 32 32 31
21 21 20 21 22 22 24 26 28 29 30 32 32 28 23 23 23 24 25 27 29 30 32 33 32 33 35 38 40 38 34 33 33 32 32 31 29 28 27 26 26 26 26 26 26 26 26 27 28 28 29 28 28 28 28 29 29 27 25 26 27 27 27 26 26 25 24 24 25 26 27 27 26 26 27 27 28 29 29 30 30 31 32 31 29
22 22 20 19 19 21 27 31 32 33 34 35 33 28 26 26 24 23 25 28 30 32 31 31 32 37 41 39 37 34 32 31 31 30 30 28 27 26 25 25 25 25 26 26 27 28 29 30 30 29 29 28 28 28 28 28 28 28 27 28 29 29 29 28 27 26 26 26 26 27 28 27 28 29 29 28 29 30 30 30 31 31 31 30 28
21 20 19 20 21 22 29 34 35 36 36 34 32 30 29 26 23 23 26 30 32 31 31 33 38 42 41 36 33 31 32 31 29 27 27 26 27 27 27 28 27 27 28 28 29 31 32 32 32 30 28 28 27 27 28 28 28 27 28 29 29 29 29 29 29 28 28 27 28 28 28 28 29 31 32 31 30 30 31 31 32 32 30 29 28
21 22 22 24 24 24 28 33 36 36 35 32 29 28 27 25 25 27 30 31 31 31 34 38 39 38 34 31 31 31 30 29 27 25 25 26 27 28 28 29 29 29 29 29 30 32 31 30 28 26 26 27 27 27 28 27 27 27 27 27 28 28 28 29 30 30 30 30 29 30 29 29 31 32 34 34 33 32 31 31 32 31 30 28 28
25 26 26 26 27 25 27 33 36 33 28 26 26 25 26 28 30 31 31 30 29 32 36 38 36 33 31 30 30 29 27 27 27 27 27 27 27 26 26 27 28 28 29 29 30 31 29 25 23 23 24 26 26 26 27 27 27 28 28 28 28 28 29 30 30 30 31 31 31 30 31 31 31 33 34 35 35 34 33 32 32 32 31 29 28
27 28 28 27 27 27 31 36 33 26 23 24 27 30 31 32 32 31 31 31 32 32 32 34 34 31 29 28 27 27 28 30 30 29 28 27 25 24 24 25 27 28 29 30 31 30 27 25 25 26 26 26 26 26 26 27 28 28 28 28 28 29 30 30 30 29 29 31 31 31 31 31 31 32 34 35 37 37 36 36 35 34 34 32 29
29 28 27 27 27 27 30 30 25 23 25 27 30 33 33 32 31 32 33 34 33 30 29 31 32 29 26 28 29 30 31 30 29 29 29 26 24 24 27 29 31 31 30 30 29 27 25 24 26 28 29 28 28 27 28 28 30 30 29 29 29 29 30 30 30 30 29 30 30 30 31 31 31 32 33 36 38 39 39 39 38 36 37 37 34
29 27 25 28 30 25 21 20 20 25 29 30 32 33 31 31 34 35 34 32 30 30 30 32 32 29 29 30 31 30 28 27 28 28 27 25 24 27 30 32 34 33 32 31 29 27 27 27 28 29 30 30 30 30 29 30 31 31 30 30 29 29 29 30 30 30 30 30 29 29 31 31 32 32 32 34 36 37 37 39 40 40 40 40 40
26 26 25 26 27 22 18 19 24 28 31 35 38 33 30 33 36 34 31 30 30 31 31 32 32 31 30 30 29 26 25 26 28 28 28 28 29 30 31 30 31 31 30 30 30 31 32 32 30 29 29 30 31 31 30 29 29 30 31 30 30 29 29 29 30 30 30 29 28 27 27 29 31 31 31 32 34 34 33 34 37 39 40 40 41
25 26 27 27 27 25 24 28 32 34 36 37 35 32 32 35 34 30 29 31 32 31 31 31 31 30 29 28 26 25 25 27 29 30 30 31 30 31 30 29 29 29 28 28 29 31 33 33 30 29 29 30 31 30 29 29 28 29 30 30 30 31 30 31 32 31 30 29 29 28 27 28 29 29 30 31 32 33 33 33 33 35 37 39 39
24 24 24 29 31 27 27 32 35 37 40 36 31 32 35 34 29 27 30 32 32 30 30 30 29 28 28 27 27 27 27 28 30 31 31 31 30 30 30 28 27 27 27 27 27 27 28 28 28 28 28 29 29 28 27 28 28 28 28 28 29 29 29 29 30 30 29 30 31 30 31 31 29 28 29 31 32 33 32 32 32 33 34 36 37
26 27 27 32 34 30 31 36 37 39 42 37 32 33 34 32 29 29 30 31 31 30 29 29 28 28 28 28 28 28 28 29 31 31 31 31 30 30 29 28 26 27 27 27 27 26 25 24 25 25 26 27 28 26 24 25 25 26 26 26 27 27 26 27 27 28 29 31 33 33 33 33 29 29 31 32 32 33 32 31 31 31 31 32 34
31 32 31 35 38 36 38 41 38 39 40 37 34 34 32 30 30 31 32 31 30 29 28 28 29 29 29 29 28 28 29 31 31 31 31 31 30 30 30 27 26 26 26 26 27 27 24 21 20 20 22 24 25 24 23 23 24 24 25 26 26 26 26 26 26 25 26 28 31 33 34 32 29 30 32 30 30 31 32 31 30 28 28 28 29
34 35 34 35 38 39 40 40 38 38 38 35 34 34 32 30 31 32 32 30 28 28 28 29 29 30 30 28 27 28 31 32 32 31 31 31 31 31 30 28 25 25 25 26 25 23 21 19 19 19 20 23 25 25 24 24 25 25 26 26 26 25 25 25 25 24 25 27 30 34 35 33 31 32 33 30 29 31 31 31 30 28 26 26 27
34 35 33 33 37 40 40 38 36 37 36 34 34 33 31 31 32 32 31 29 28 29 29 29 30 30 29 28 28 30 31 31 31 30 30 32 32 31 31 28 26 25 25 25 22 20 20 20 20 20 20 22 24 26 26 27 29 29 28 28 26 23 23 23 23 24 26 29 31 33 32 32 32 32 31 29 30 32 32 32 31 28 26 26 27
37 37 32 31 37 39 38 36 36 36 36 35 34 32 30 30 31 31 29 28 29 30 30 31 31 29 29 29 29 31 31 30 31 31 33 33 32 31 31 29 27 26 25 23 21 19 19 20 20 21 23 23 24 25 24 24 26 28 28 27 24 20 19 19 20 22 23 25 26 26 26 27 29 30 29 28 29 32 33 32 31 29 27 26 28
38 38 34 33 37 37 36 36 36 36 35 34 33 32 30 30 30 29 28 29 30 31 31 30 30 29 30 30 30 31 32 32 31 32 33 34 32 30 31 31 32 31 26 22 21 20 20 22 23 23 22 20 19 19 21 21 21 22 22 20 18 17 16 17 20 21 20 21 21 22 23 24 25 26 27 26 28 31 33 32 32 30 28 27 29
38 36 31 31 34 36 36 35 35 35 34 34 34 31 29 29 28 28 30 31 31 30 30 29 30 30 31 31 31 32 32 32 32 32 31 32 32 29 27 29 31 29 24 21 21 21 21 22 21 18 15 15 16 19 20 20 18 17 18 18 18 17 16 17 19 18 18 19 20 21 23 24 24 24 25 26 27 29 31 31 29 27 24 26 30
39 35 29 28 32 35 35 35 34 34 34 34 33 30 28 28 29 30 32 32 30 29 29 29 30 31 32 32 32 32 32 32 33 32 30 30 30 28 26 25 25 22 18 17 18 18 17 15 14 14 14 15 18 19 19 18 17 15 16 18 19 19 18 19 20 18 19 20 20 22 23 23 23 23 23 24 25 27 30 30 27 25 24 27 30
37 35 30 28 31 33 33 34 34 34 35 35 32 30 29 28 30 31 32 31 30 29 29 30 31 31 32 32 32 33 33 32 31 29 28 27 27 25 25 24 22 20 17 15 15 15 13 12 14 15 15 16 17 18 18 18 17 16 16 16 17 18 18 19 21 20 20 21 21 22 22 21 21 21 21 22 23 25 29 29 26 26 27 29 31
37 36 31 28 30 30 31 33 34 35 35 34 32 30 29 28 30 32 32 31 30 30 31 31 31 32 32 33 33 32 31 29 27 26 25 25 24 23 23 23 21 19 16 14 14 15 14 13 14 14 15 16 16 16 18 17 16 15 15 13 14 15 15 19 21 20 20 21 20 20 19 19 20 20 19 20 21 25 28 27 25 26 29 31 31
36 36 32 27 28 29 29 32 34 35 34 33 32 30 28 28 31 32 31 31 31 32 31 31 31 32 33 32 32 30 28 27 25 25 23 22 22 22 22 22 20 18 16 15 14 14 13 13 13 12 13 14 15 15 16 17 15 13 11 11 12 12 14 18 18 18 18 17 16 16 16 18 18 17 17 19 22 27 27 25 26 28 30 32 31
37 38 34 26 25 27 28 31 34 34 33 32 31 29 28 30 32 32 32 32 32 31 30 30 31 32 32 31 30 29 28 27 25 26 25 22 21 21 20 20 19 18 18 17 16 16 14 11 9 9 12 15 15 14 14 14 12 11 11 9 8 11 15 15 13 14 15 14 15 16 16 17 17 14 15 19 25 27 26 25 27 29 31 31 30
38 39 34 25 24 27 29 32 34 33 32 31 29 28 29 31 31 32 32 33 32 31 30 30 31 30 29 28 27 26 27 27 26 26 26 24 24 23 21 20 20 19 19 18 17 17 14 9 7 9 12 14 13 11 10 10 9 10 7 3 12 16 17 16 16 17 16 15 16 17 16 17 17 18 20 23 26 27 27 27 28 28 28 27 26
38 38 33 25 24 28 31 32 33 33 32 31 28 28 30 31 31 32 33 32 32 31 31 30 30 28 27 26 25 25 26 26 26 26 26 26 25 24 23 23 22 21 21 21 21 19 15 12 11 11 12 11 9 8 8 7 7 7 2 14 20 18 17 18 18 19 19 17 16 17 17 18 20 23 24 24 26 28 28 27 27 27 26 25 24
37 38 34 25 23 28 31 32 33 33 31 29 28 30 32 32 32 33 33 32 31 31 30 29 28 27 27 26 25 26 26 26 26 26 26 27 26 23 21 21 22 23 23 22 21 19 17 16 15 14 14 12 9 8 7 5 4 1 8 17 18 16 18 19 19 20 20 18 17 18 19 20 21 23 22 22 24 26 25 24 24 25 25 25 24
36 36 33 25 24 29 32 31 32 32 29 28 29 32 32 32 33 33 32 32 31 30 28 28 27 27 26 26 25 25 26 26 25 25 26 26 27 27 22 16 16 20 23 22 19 17 17 17 16 15 13 10 7 6 4 2 2 5 13 17 16 17 19 19 20 22 20 18 17 17 17 18 20 21 21 22 23 24 24 24 23 22 22 23 24
Wind_Direction
330 340 336 328 333 339 339 337 336 337 336 333 327 323 319 320 317 312 308 303 299 299 298 301 309 309 305 306 310 310 308 306 302 296 294 291 290 291 286 273 269 269 267 272 277 279 279 276 270 261 258 256 241 222 214 211 209 208 208 206 203 202 203 203 200 192 185 187 195 196 197 203 207 210 212 214 215 217 217 216 216 217 220 222 223
321 339 341 339 342 339 336 338 339 337 333 328 322 318 316 317 314 310 305 300 296 296 294 295 297 291 286 288 296 301 302 306 307 304 300 295 289 289 288 279 268 267 264 263 264 267 272 275 272 266 260 259 258 246 227 217 213 211 208 206 206 204 203 201 195 187 183 182 176 172 187 201 207 210 212 214 215 215 215 216 217 217 218 220 222
342 346 340 339 340 338 337 337 337 335 328 321 316 313 313 314 314 309 304 300 297 296 294 290 292 292 291 292 288 285 290 299 303 304 302 298 293 286 281 276 270 268 266 263 262 260 261 267 269 268 264 259 259 263 252 230 219 216 212 209 207 205 207 202 194 192 187 174 160 160 184 188 204 213 214 213 211 211 213 215 217 218 218 220 222
351 346 343 344 343 339 332 329 330 329 323 318 315 314 314 315 315 313 307 301 297 293 292 294 303 310 312 308 298 287 285 288 292 297 297 296 297 292 278 271 270 270 271 268 265 263 259 259 261 265 266 261 258 261 261 252 234 222 217 214 209 204 206 205 200 199 189 173 164 158 154 156 208 213 207 211 208 208 213 214 215 216 218 219 220
352 347 346 341 335 330 325 323 323 321 319 317 314 311 312 315 317 315 310 304 300 298 299 308 316 317 313 309 304 299 293 284 277 284 291 292 296 298 291 286 280 276 280 279 270 268 266 260 257 258 260 258 259 258 256 257 251 235 226 220 215 210 207 205 203 202 197 190 187 174 150 181 225 180 168 206 208 206 210 212 214 216 216 217 219
346 346 343 333 328 327 324 321 318 313 314 317 314 311 313 318 318 313 310 312 316 317 316 317 317 314 310 307 304 301 296 290 283 278 278 281 286 290 292 293 292 289 290 287 277 271 270 267 263 259 257 255 256 258 256 255 255 248 239 230 224 219 214 207 204 205 205 203 200 199 197 201 188 152 140 195 204 207 211 210 212 214 214 216 217
340 347 339 331 331 331 326 323 318 314 320 324 321 321 324 324 321 315 316 323 326 323 320 318 315 310 306 303 301 298 294 292 291 287 277 271 274 279 282 284 287 288 289 289 286 280 275 274 272 267 262 257 254 255 255 253 254 251 245 240 233 226 219 214 210 208 207 210 212 211 213 213 184 171 167 141 173 206 211 208 211 212 212 213 215
341 342 334 332 335 335 331 328 326 327 332 331 326 327 327 324 321 320 323 325 321 317 316 314 309 304 301 300 297 293 291 290 292 292 286 276 271 271 274 276 279 281 281 281 282 283 284 282 279 274 269 264 258 254 251 252 255 254 246 242 238 230 225 223 222 214 207 213 217 217 224 228 202 187 184 171 149 186 201 206 210 209 211 213 215
339 334 332 335 336 336 334 332 332 334 336 334 331 331 327 324 323 322 323 321 315 314 317 317 313 310 307 304 299 293 290 291 292 292 290 285 275 269 270 270 271 274 275 275 274 275 280 285 284 279 273 271 266 259 255 252 253 253 247 240 238 234 229 228 229 224 216 216 217 217 224 228 214 200 191 180 165 162 179 197 199 200 211 216 216
328 326 329 336 337 336 336 336 335 333 332 332 332 331 329 328 327 324 323 319 313 314 320 321 319 317 313 307 304 300 296 293 290 288 287 287 281 274 271 269 270 272 272 270 268 268 269 272 279 280 275 273 270 266 261 257 252 249 247 241 237 238 234 229 228 228 224 219 216 214 217 218 214 209 197 186 175 165 175 182 181 184 199 210 213
320 320 329 337 337 337 340 340 335 330 330 329 330 333 336 335 330 325 324 322 316 317 323 324 321 318 314 310 307 304 302 298 293 288 284 283 280 277 272 269 269 269 269 267 265 266 265 266 272 274 271 270 271 270 265 262 257 250 248 245 239 237 239 235 231 230 227 221 217 215 215 216 214 213 207 196 183 156 160 171 182 187 190 197 205
323 323 332 337 337 339 342 339 333 329 328 327 329 337 341 337 330 325 325 322 315 317 324 325 322 319 314 312 308 304 301 297 294 291 287 284 281 279 275 268 265 264 268 270 269 267 265 267 270 270 268 267 267 268 264 262 261 255 250 248 244 239 240 241 237 233 232 225 218 217 219 220 219 221 216 206 204 183 157 158 176 179 188 201 199
332 333 334 334 335 338 340 336 332 329 324 323 332 341 339 334 330 324 321 318 313 319 326 324 318 314 312 311 309 305 300 296 294 290 287 285 281 281 279 273 269 268 269 269 267 267 265 266 267 265 267 269 267 263 258 254 254 253 250 247 245 242 240 242 240 235 233 231 223 218 220 222 222 224 220 211 213 201 168 161 174 172 175 189 190
338 335 332 333 333 334 336 335 330 324 321 327 340 342 335 330 326 317 314 315 317 326 329 324 317 310 306 307 307 305 301 298 296 291 287 284 281 280 281 278 273 271 269 266 266 267 267 266 264 262 264 268 269 265 258 252 245 243 245 244 243 242 241 241 241 238 236 236 233 224 220 221 223 223 220 215 214 210 198 174 155 169 169 150 176
335 328 326 331 330 330 334 331 323 322 328 336 338 332 327 324 321 318 317 322 328 333 330 323 318 312 305 304 304 303 301 299 297 294 291 289 286 280 275 272 271 270 269 267 267 266 266 268 265 262 262 264 268 267 261 255 248 241 239 237 237 239 239 238 238 239 239 237 237 234 227 223 222 221 219 218 214 213 213 193 160 153 153 141 167
327 322 325 330 326 326 328 323 321 329 336 335 328 324 323 323 324 324 324 328 332 332 326 320 317 312 306 303 301 300 299 298 298 297 294 294 292 284 274 269 269 271 270 267 265 263 264 268 267 263 262 261 263 265 264 260 254 248 243 238 233 229 231 234 234 235 237 237 237 237 237 230 223 220 219 219 217 214 216 204 184 173 166 163 174
325 326 329 328 323 322 322 323 330 337 334 329 324 322 322 326 327 323 324 329 330 329 329 326 323 319 313 307 302 299 297 297 299 299 298 298 296 292 284 274 269 271 270 267 264 262 262 264 265 263 261 257 258 260 262 263 260 255 248 243 239 233 228 227 228 231 234 237 237 237 240 239 228 221 220 221 220 216 214 210 201 197 193 180 175
327 331 329 325 323 321 322 329 334 332 327 324 322 323 326 328 324 320 324 330 331 333 335 332 327 323 319 316 312 310 308 308 308 305 304 303 299 295 287 276 272 271 269 267 264 262 261 261 260 261 261 258 256 254 255 258 260 259 256 251 246 241 237 233 230 230 232 235 237 237 239 241 235 226 222 222 222 218 213 211 210 208 206 203 196
331 332 327 324 326 324 325 330 331 327 322 320 323 325 326 323 319 321 326 328 331 334 333 330 326 321 319 319 318 317 315 314 312 307 304 301 299 295 286 276 275 273 267 265 262 260 260 260 258 259 260 259 254 248 247 249 250 253 255 256 254 248 243 239 236 234 233 233 235 236 236 238 238 233 229 226 223 221 217 212 213 213 213 216 214
331 328 326 327 328 326 327 331 327 322 319 321 324 323 321 319 320 321 322 324 329 332 332 328 323 319 316 315 316 316 313 309 306 304 301 299 298 297 288 279 276 273 270 267 264 260 260 260 259 257 257 257 254 249 244 242 241 243 247 249 252 251 246 242 239 237 235 233 233 234 234 234 235 233 232 230 225 224 223 218 215 215 216 220 219
328 326 326 327 326 324 326 329 323 317 318 322 321 317 315 314 312 310 312 321 326 327 327 322 318 315 311 309 311 314 311 304 299 296 295 294 295 295 291 282 275 272 274 274 272 269 266 263 260 255 252 253 254 251 247 242 237 237 239 240 242 246 246 244 242 238 236 233 231 232 233 233 232 231 230 230 227 224 224 222 219 217 218 221 220
325 325 325 324 324 322 322 323 317 312 317 323 319 313 310 308 305 303 307 315 320 320 319 317 315 312 307 306 309 311 310 305 297 292 289 288 288 288 288 282 274 270 272 274 274 272 270 268 265 259 253 250 250 250 248 244 237 232 230 231 235 240 245 246 245 243 239 234 231 231 232 232 231 230 229 228 226 223 221 220 219 218 218 220 219
322 324 322 322 323 321 319 318 314 313 318 321 316 311 306 303 300 295 299 310 315 315 314 312 311 308 305 305 306 307 307 304 299 292 289 286 283 283 284 280 274 272 273 273 272 271 270 268 266 265 259 251 247 247 246 244 242 237 231 228 232 236 240 243 244 245 244 240 236 234 233 231 228 227 227 226 225 223 221 221 220 219 219 220 219
322 322 321 321 322 320 319 317 315 317 320 318 314 310 304 300 295 292 299 311 315 314 314 312 310 308 307 305 304 304 303 302 300 297 293 289 282 278 276 275 275 275 275 276 274 272 272 269 265 263 259 253 248 246 245 244 244 244 238 232 232 232 236 241 242 243 243 241 240 238 236 232 228 226 226 225 224 223 222 221 221 220 220 221 218
322 321 321 322 321 320 320 320 320 321 322 318 313 309 306 303 299 299 307 314 315 316 315 314 312 312 311 307 303 301 301 301 302 300 297 294 289 282 275 272 271 271 272 273 272 272 274 273 268 262 258 254 251 248 245 242 241 242 240 235 233 231 233 237 240 240 240 239 240 240 239 234 227 225 225 224 222 222 221 220 221 220 219 220 217
322 321 322 323 324 325 326 324 323 322 322 319 315 312 310 308 305 308 316 319 319 317 315 315 315 312 309 304 300 299 299 299 298 297 299 302 304 301 295 289 284 280 277 274 273 272 272 272 267 262 257 254 251 248 244 242 242 241 240 237 234 232 232 233 236 239 239 239 240 241 241 235 228 224 225 224 223 221 220 219 220 220 219 217 214
322 324 327 329 330 330 327 324 322 322 322 320 318 317 316 316 318 320 321 318 316 315 315 316 314 310 305 301 300 300 299 296 293 295 300 305 307 307 305 302 297 292 287 281 278 275 272 269 265 260 256 254 252 249 244 243 243 241 239 235 232 230 230 232 236 239 241 242 242 243 242 237 231 228 227 226 224 221 220 220 220 220 218 213 209
330 333 334 333 331 328 325 323 323 324 324 323 324 325 326 326 324 319 315 313 314 316 317 316 313 309 305 302 302 300 296 295 297 300 302 303 303 301 299 297 295 292 289 284 279 275 270 267 264 261 257 253 251 247 243 241 241 241 240 236 233 231 231 232 235 238 240 241 242 243 242 239 235 233 231 229 226 223 220 219 219 218 215 211 207
335 335 334 331 328 327 326 324 323 323 327 332 333 331 327 322 316 313 312 313 315 316 317 316 312 309 306 302 301 300 301 305 306 304 302 299 297 295 292 291 290 289 287 286 283 278 273 271 273 273 266 256 249 244 241 241 242 243 241 239 237 235 233 233 234 236 238 239 239 240 240 240 238 236 235 233 231 227 221 218 217 215 211 209 206
333 332 330 328 327 326 325 324 323 328 338 341 335 326 320 316 315 315 315 314 315 316 319 317 311 307 307 307 308 310 312 312 309 304 301 299 298 298 299 298 296 291 287 284 282 278 274 272 275 277 272 261 250 245 244 244 243 242 240 240 239 237 234 232 233 235 237 238 237 238 241 242 240 239 238 237 234 231 225 221 217 213 209 206 203
332 330 328 328 326 325 327 329 333 338 337 332 326 322 318 316 318 318 316 315 316 319 322 317 309 308 313 317 318 316 311 308 306 304 301 299 300 304 305 304 300 293 287 282 279 276 274 272 270 271 269 262 254 251 248 245 244 244 242 240 238 236 233 231 231 231 233 236 236 238 240 242 241 239 238 238 236 233 229 224 220 215 211 208 204
331 329 329 329 328 329 333 336 335 331 327 323 322 322 320 320 320 318 315 316 319 320 321 318 312 311 317 319 315 309 306 307 307 305 303 304 307 307 305 301 295 290 285 281 279 277 276 275 271 266 262 257 254 253 249 246 247 249 247 242 237 235 233 231 231 230 231 233 234 235 236 237 237 237 236 235 234 232 229 225 221 218 214 211 208
327 327 329 329 330 329 327 327 327 326 325 323 320 322 326 324 319 316 318 321 322 321 319 317 314 312 312 311 308 306 309 312 311 309 309 310 309 306 302 297 293 288 282 278 277 277 275 273 269 261 256 254 252 250 247 245 247 249 249 245 239 238 237 235 235 234 234 234 235 234 234 234 235 235 233 231 229 227 226 223 220 217 214 212 210
326 327 329 329 330 328 328 329 328 328 328 323 319 323 327 323 317 318 323 324 322 319 316 314 313 310 308 308 310 313 315 314 312 310 309 307 304 302 300 297 292 288 281 273 271 272 271 269 264 257 253 252 249 247 245 245 246 248 249 245 241 240 239 239 240 239 237 238 238 236 235 235 234 231 227 227 225 223 222 219 215 212 211 210 209
327 329 331 332 331 329 329 328 326 327 327 324 323 328 325 321 321 327 327 323 319 318 316 314 312 312 313 314 316 316 315 313 311 309 306 303 302 301 299 296 291 287 282 275 271 270 270 267 262 256 252 251 250 249 247 247 248 249 249 247 245 242 239 238 239 239 238 240 241 239 239 239 234 226 224 224 222 219 217 214 211 209 208 207 206
327 330 333 334 330 326 326 326 326 328 327 322 325 329 325 322 326 328 325 321 319 317 316 315 316 316 316 315 316 315 314 313 311 308 305 303 302 300 298 296 292 288 285 280 276 277 275 269 262 254 249 250 252 253 251 250 251 253 253 252 249 244 240 238 239 239 237 239 240 239 240 239 231 224 224 222 218 215 212 208 207 206 205 205 205
326 329 331 332 329 325 325 327 328 329 326 322 324 327 325 324 326 325 322 320 318 317 317 317 318 316 315 314 315 315 314 312 310 307 305 303 302 301 298 295 290 287 287 285 281 282 281 274 266 260 254 253 256 258 255 253 254 255 256 255 250 243 239 238 239 238 236 238 240 240 239 236 227 224 224 219 212 210 207 204 203 201 200 201 202
328 331 331 332 332 328 326 327 327 326 326 325 325 326 325 324 325 324 321 319 319 319 319 319 318 316 314 315 316 315 313 311 308 306 304 304 303 299 295 293 288 285 285 285 284 287 291 287 279 273 267 263 264 266 265 264 263 261 259 257 252 245 240 238 235 235 238 242 244 244 239 231 223 221 221 215 209 206 201 200 199 195 193 195 195
331 332 331 332 333 329 326 326 326 325 326 327 328 327 325 323 323 321 320 320 320 320 320 320 318 316 315 316 316 314 312 308 306 304 304 302 300 297 294 291 285 281 281 282 287 294 297 293 289 283 276 271 270 270 270 268 267 267 264 260 252 245 242 238 231 230 235 240 242 241 235 226 220 218 216 212 210 205 198 196 195 190 189 191 190
332 333 333 333 333 331 328 327 328 327 327 328 329 327 325 323 321 320 320 320 320 320 320 318 316 315 316 316 314 311 309 307 305 304 304 301 298 296 294 290 287 287 283 280 285 290 287 284 286 284 279 275 272 273 275 273 271 271 268 259 249 244 243 235 225 226 231 233 235 233 226 218 215 215 213 210 210 206 198 194 192 189 188 188 184
330 333 334 335 334 332 328 327 327 327 328 329 328 326 324 322 320 319 320 321 321 320 318 317 316 316 316 314 312 309 307 306 304 303 302 300 297 295 294 294 294 291 283 275 278 282 280 280 282 281 279 278 281 288 293 290 285 281 275 264 254 251 247 232 224 225 226 224 222 219 215 211 209 211 211 210 212 207 196 191 192 191 189 184 177
331 333 335 337 336 332 328 326 327 328 329 330 328 325 323 320 319 319 321 322 321 319 318 318 318 317 315 313 310 309 308 306 304 303 301 300 299 299 299 298 296 289 279 274 278 278 276 278 282 286 291 296 302 307 304 296 290 282 276 271 263 257 250 238 227 219 214 215 211 210 212 209 205 207 209 209 213 205 191 187 190 187 179 174 172
332 333 333 335 336 332 328 326 328 330 329 329 327 324 321 320 319 321 322 321 320 320 320 319 318 315 314 313 311 311 310 307 304 304 302 300 301 305 307 306 305 302 298 294 294 290 284 287 298 307 307 306 310 312 304 296 292 284 278 274 263 255 249 236 221 210 207 209 207 209 211 206 202 206 206 207 211 200 183 181 184 178 170 167 168
333 333 331 333 335 333 329 327 328 329 328 327 326 323 320 320 320 323 323 321 321 322 321 319 317 315 315 314 313 313 312 308 306 306 306 304 304 309 312 312 314 317 315 318 324 322 316 316 318 314 308 305 309 309 301 294 290 288 285 276 262 255 244 224 211 208 207 205 204 206 205 200 200 204 203 206 206 190 174 174 177 174 167 163 161
332 332 332 332 332 331 329 327 328 329 327 325 325 323 320 320 322 324 324 322 323 323 320 318 317 316 316 315 314 313 313 311 311 311 310 308 309 313 315 315 318 320 318 323 333 332 326 322 316 311 307 303 301 302 301 299 296 293 287 274 264 256 230 206 201 204 203 200 200 200 196 195 197 197 199 203 193 173 166 170 171 167 161 158 157
332 332 332 331 331 332 330 326 326 327 326 324 324 323 321 321 323 324 324 323 323 321 319 319 319 317 317 317 316 316 316 316 317 318 316 311 311 313 313 313 315 317 316 319 326 328 323 315 309 312 314 307 300 299 303 304 303 299 293 279 263 237 201 189 193 195 191 188 186 185 185 189 190 191 195 190 171 158 160 164 163 159 156 155 157
333 333 331 330 332 334 332 327 325 325 324 323 323 323 323 324 325 325 324 323 322 321 320 320 320 319 319 319 318 319 319 321 322 323 320 315 313 314 312 311 313 315 317 320 326 326 320 309 309 325 325 312 298 292 300 307 307 308 307 285 235 188 166 162 166 167 166 168 170 173 177 181 179 175 172 163 152 148 149 148 147 150 153 156 161
333 333 331 330 333 335 332 327 325 324 324 323 322 323 325 326 325 325 325 323 322 322 321 320 320 320 320 319 319 319 319 321 322 322 320 317 315 315 312 309 310 312 313 316 322 323 319 317 330 331 320 308 294 287 298 304 303 313 324 148 148 145 144 146 149 151 153 160 165 165 163 162 151 135 129 131 131 130 131 132 137 144 150 155 159
333 333 330 329 334 336 332 327 324 325 325 323 322 324 326 327 327 326 326 323 322 323 323 322 322 321 320 320 320 319 319 319 319 319 318 315 314 313 309 306 309 314 313 313 321 326 328 334 337 325 309 301 294 300 309 296 290 315 76 134 137 139 144 145 147 150 150 148 147 141 134 131 124 117 114 115 116 119 123 129 136 142 146 149 152
333 332 328 328 335 336 333 328 325 326 326 324 324 325 327 328 329 328 327 324 324 324 324 323 323 322 322 322 321 320 320 320 318 318 318 316 316 316 309 303 311 321 322 322 329 336 338 339 333 320 311 303 295 307 316 286 270 281 140 143 141 143 144 140 142 148 143 132 124 118 116 119 120 118 118 118 119 121 121 123 129 136 142 146 149
333 331 329 330 337 338 334 330 327 327 326 325 326 327 328 328 329 330 328 327 326 325 323 322 322 321 321 321 321 319 319 319 319 319 319 318 319 322 320 313 316 325 329 335 344 345 340 337 329 319 318 313 303 315 324 262 213 142 141 140 135 138 139 139 145 145 132 119 117 115 115 122 124 123 123 124 125 125 124 124 127 133 140 146 149